Location: Joiner
(35.5079°N, 90.1470°W)
Time: 03:45:56
(UTC+00:00)

Daily predictions for brighter satellites

Satellite Brightness Start Highest point End
(mag) Time Altitude Azimuth Time Altitude Azimuth Time Altitude Azimuth
Milstar 3 4.4 00:38:14 10° SSW 00:45:52 36° SSE 00:58:37 10° E
Meteor 1-16 Rocket 4.4 00:48:13 10° SSE 00:53:42 50° E 00:59:02 10° NNE
COSMOS 2406 3.5 00:49:36 10° NNW 00:55:23 80° WSW 01:01:05 10° SSE
Cosmos 1331 Rocket 4.1 00:55:33 10° SSW 01:00:45 85° WNW 01:06:02 10° NNE
Cosmos 1953 2.8 00:58:04 10° SSE 01:01:34 35° E 01:05:04 10° NNE
CZ-4B R/B 2.8 00:58:07 10° SSE 01:01:53 57° ENE 01:05:28 10° N
Cosmos 1850 Rocket 4.3 00:57:45 10° N 01:02:55 51° ENE 01:08:00 10° SE
Cosmos 2297 3.8 00:59:42 10° SSW 01:05:21 86° WNW 01:11:04 10° NNE
SL-08 R/B 4.5 01:03:20 10° N 01:07:52 49° WNW 01:12:27 10° SSW
Meteor PRIRODA 4.0 01:04:40 10° S 01:08:02 61° W 01:11:26 10° NNW
CZ-4B DEB 4.2 01:03:39 10° SSE 01:09:08 69° ENE 01:14:39 10° N
ADEOS Rocket 3.2 01:04:43 10° S 01:10:20 68° WSW 01:15:47 10° NNW
NOSS 3-1 (A) 4.5 01:11:25 10° SE 01:13:27 13° ESE 01:15:34 10° E
Cosmos 2369 Rocket 2.2 01:09:03 10° SSW 01:14:44 83° ESE 01:20:26 10° NNE
SJ 16-02 2.9 01:11:54 10° NNE 01:14:56 18° ENE 01:17:18 13° ESE
ADEOS 4.0 01:10:10 10° S 01:15:20 67° WSW 01:20:32 10° NNW
DELTA 2 DEB (DPAF) 4.4 01:12:12 10° NNE 01:16:11 39° E 01:20:08 10° S
NOSS 2-2 (C) 4.4 01:14:44 10° SW 01:18:06 39° WNW 01:21:05 10° NNE
SL-8 Rocket 4.3 01:13:35 10° N 01:19:28 44° E 01:25:16 10° SSE
Iridium 82 4.4 01:15:57 10° N 01:19:29 77° E 01:23:09 10° S
SPOT 1/Viking Rocket 3.7 01:18:31 10° SSE 01:23:36 56° ENE 01:28:42 10° N
Cosmos 2263 4.1 01:18:02 10° SSW 01:23:38 70° ESE 01:29:13 10° NNE
Cosmos 2098 Rocket 4.4 01:19:42 10° SSE 01:24:21 27° E 01:28:23 10° NE
APEX 4.2 01:21:32 10° NW 01:24:30 35° WSW 01:27:14 10° S
CZ-4B R/B 3.4 01:23:28 10° SSE 01:28:58 56° ENE 01:34:27 10° N
Okean-O 4.3 01:28:34 14° E 01:29:49 16° ENE 01:32:29 10° NNE
Cosmos 2341 Rocket 4.0 01:24:30 10° N 01:30:44 60° E 01:36:52 10° SSE
Cosmos 1674 Rocket 4.1 01:26:39 10° NNW 01:31:03 63° W 01:35:25 10° S
Cosmos 1825 2.0 01:28:01 10° N 01:31:25 52° E 01:34:23 13° SSE
USA 234 3.4 01:28:21 15° ESE 01:33:52 61° NE 01:40:17 10° NW
NOSS 3-1 (C) 2.9 01:31:46 10° SSW 01:36:18 57° ESE 01:41:30 10° NE
Cosmos 2082 Rocket 4.3 01:34:14 10° NW 01:38:53 26° WSW 01:43:30 10° SSW
Hubble Space Telescope 1.8 01:36:42 10° WSW 01:40:10 29° S 01:41:39 22° SE
Resurs 1-3 4.0 01:37:46 10° S 01:42:04 65° W 01:46:24 10° NNW
[s.n.70599] 3.7 01:43:11 10° W 01:45:27 29° SW 01:46:07 25° S
Cosmos 2366 rocket 4.0 01:44:00 10° N 01:50:21 70° E 01:56:40 10° SSE
Cosmos 1025 Rocket 2.9 01:47:35 10° N 01:51:58 79° E 01:55:30 15° S
Okean O Rocket 1.6 01:49:28 23° SE 01:52:00 56° ENE 01:56:16 10° N
ATLAS 3B R/B 2.9 01:51:03 10° S 01:57:33 49° ESE 02:04:33 10° NE
Resurs 01 Rocket 1.5 01:55:01 23° SSE 01:57:40 68° ENE 02:02:03 10° N
Cosmos 2218 Rocket 4.0 01:51:16 10° N 01:57:41 77° E 02:03:55 10° S
CARTOSAT-1 3.5 01:58:16 29° SSE 02:00:18 64° ENE 02:04:32 10° N
Cosmos 1346 Rocket 3.9 01:57:28 10° SSW 02:01:08 44° W 02:04:48 10° N
USA 281 3.4 01:59:34 26° SE 02:03:13 54° ENE 02:09:35 10° NNW
Cosmos 1975 Rocket 3.1 01:59:50 10° N 02:04:05 53° E 02:05:11 41° SE
Cosmos 1821 Rocket 4.2 01:59:58 10° N 02:05:56 49° E 02:08:32 31° SE
USA 129 4.2 02:04:01 10° N 02:05:08 19° NNW 02:05:08 19° NNW
Cosmos 1959 Rocket 4.4 02:01:43 10° N 02:07:52 88° E 02:13:23 13° S
Cosmos 1328 4.2 02:05:37 10° NNW 02:09:20 57° W 02:11:46 20° SSW
OAO 3 Rocket 3.1 02:07:06 10° W 02:12:00 83° S 02:13:29 45° ESE
Meteor 1-21 Rocket 4.5 02:09:16 10° NNW 02:15:11 75° W 02:20:11 15° S
USA 186 3.5 02:16:16 19° SSW 02:17:52 30° W 02:20:37 10° NW
DELTA 2 R/B (1) 3.8 02:13:08 10° WNW 02:18:39 58° SSW 02:20:22 41° SSE
CZ-4 R/B 3.8 02:19:45 10° SW 02:22:47 21° W 02:25:47 10° NW
ATLAS 5 CENTAUR R/B 1.5 02:20:32 10° SW 02:23:46 55° WNW 02:27:11 10° NNE
SPOT 5 3.6 02:24:44 40° ENE 02:24:59 40° ENE 02:29:56 10° N
Meteor 1-11 4.1 02:29:19 10° N 02:35:00 83° E 02:36:33 50° SSE
ERS-1 Rocket 4.1 02:36:16 28° NE 02:36:16 28° NE 02:39:40 10° N
Celestis-02/Orion 38 4.5 02:40:45 65° ENE 02:40:57 66° ENE 02:45:59 10° NNW
MOS 1 4.2 02:45:26 62° SSE 02:46:27 87° ENE 02:52:11 10° NNW
Okean 2 Rocket 4.2 02:52:03 36° NNE 02:52:03 36° NNE 02:54:46 10° N
Cosmos 1934 Rocket 4.3 02:46:04 10° N 02:51:27 47° ENE 02:51:27 47° ENE
SJ 16-02 2.8 02:49:30 10° NW 02:53:20 31° W 02:54:06 29° WSW
OAO 1 Rocket 4.4 02:50:22 10° W 02:55:16 75° WSW 02:55:16 75° WSW
IRS-1C Rocket 4.0 02:56:50 79° NNE 02:56:50 79° NNE 03:01:52 10° NNW
Cosmos 2297 Rocket 4.1 02:57:00 10° NNE 02:59:36 17° NE 02:59:36 17° NE
NOSS 3-1 (A) 3.5 02:58:38 10° SW 03:03:19 57° NW 03:08:44 10° NNE
MetOp-B 4.1 03:05:02 78° WNW 03:05:02 78° WNW 03:10:10 10° NNW
Okean-O 3.7 03:06:02 40° W 03:06:02 40° W 03:10:01 10° NNW
Terra 3.2 03:09:26 31° NNE 03:09:26 31° NNE 03:12:02 10° N
USA 234 4.3 03:15:43 30° SSW 03:17:01 33° SW 03:22:47 10° WNW
Ariane Rocket 4.2 03:27:13 36° N 03:27:13 36° N 03:30:12 10° N
ATLAS 3B R/B 4.3 03:42:13 10° WSW 03:48:29 34° NW 03:55:10 10° NNE
Cosmos 2227 Rocket 4.2 04:10:54 10° N 04:12:58 21° N 04:12:58 21° N
CZ-4C R/B 4.0 04:31:04 10° NNW 04:36:24 39° NNE 04:36:24 39° NNE
Cosmos 2297 Rocket 4.4 04:39:35 10° NNW 04:41:24 21° NNW 04:41:24 21° NNW
CENTAUR R/B 4.1 05:08:57 10° NNW 05:15:26 43° NNE 05:15:26 43° NNE
Cosmos 2219 Rocket 4.5 07:14:08 19° NNE 07:14:08 19° NNE 07:15:41 10° NNE
ADEOS II 4.3 07:34:42 10° NNE 07:36:44 21° NE 07:36:44 21° NE
CZ-2D R/B 3.9 07:47:07 10° NNE 07:49:32 28° NNE 07:49:32 28° NNE
SL-16 R/B 4.0 07:51:52 30° E 07:52:59 32° ENE 07:58:19 10° N
COSMOS 2428 3.9 08:10:38 38° NNE 08:10:38 38° NNE 08:14:03 10° NNE
CZ-2C R/B 4.0 08:17:16 34° N 08:17:16 34° N 08:20:13 10° N
Cosmos 2237 Rocket 3.5 08:16:42 35° E 08:16:42 35° E 08:20:57 10° NE
Lacrosse 5 4.2 08:21:30 16° NNW 08:21:30 16° NNW 08:23:43 10° N
ATLAS 2AS CENTAUR R/B 4.5 08:19:52 21° SE 08:22:02 24° ESE 08:27:37 10° ENE
CZ-2C R/B 4.2 08:20:21 10° NNE 08:23:30 39° NNE 08:23:30 39° NNE
ALOS 4.0 08:21:20 10° NNE 08:23:57 30° NE 08:23:57 30° NE
Resurs 1-4 Rocket 3.7 08:27:38 10° N 08:30:10 26° NNW 08:30:10 26° NNW
Cosmos 2333 Rocket 4.4 08:34:50 14° NW 08:34:50 14° NW 08:36:28 10° NNW
Nadezhda 4 Rocket 4.2 08:44:00 59° NNW 08:44:00 59° NNW 08:49:04 10° N
H-2A R/B 4.3 08:46:24 36° S 08:46:24 36° S 09:12:48 10° ESE
NOSS 0 Rocket 3.9 08:48:14 71° NNW 08:48:14 71° NNW 08:53:52 10° NNE
Cosmos 1680 Rocket 4.4 08:47:51 42° ESE 08:48:09 43° ESE 08:53:08 10° NNE
Cosmos 2278 Rocket 3.1 08:47:33 10° N 08:53:01 46° ENE 08:58:25 10° SE
Meteor 2-17 Rocket 4.5 08:54:22 65° NW 08:54:22 65° NW 08:59:52 10° N
Cosmos 1428 Rocket 4.3 08:53:48 84° SSW 08:54:02 89° W 09:00:21 10° N
Cosmos 2219 Rocket 4.2 08:55:50 16° NW 08:55:50 16° NW 08:58:08 10° NNW
BREEZE-M DEB (TANK) 3.8 09:00:45 82° N 09:00:45 82° N 09:11:05 10° NE
RESURS DK-1 4.3 09:04:22 21° N 09:04:22 21° N 09:06:03 10° N
Meteor 2-10 4.5 08:58:59 10° N 09:04:37 66° E 09:07:23 31° SSE
SL-16 R/B 3.9 09:03:20 17° SSE 09:06:26 28° ESE 09:11:10 10° NE
Cosmos 1151 Rocket 3.7 09:07:55 50° NNE 09:07:55 50° NNE 09:11:10 10° N
METEOR-M 4.3 09:05:17 10° NNE 09:10:36 66° ESE 09:11:50 50° SSE
CZ-2C R/B 3.3 09:07:36 10° NNE 09:12:36 48° E 09:14:38 32° SSE
BREEZE-M DEB (TANK) 4.5 09:13:45 45° WSW 09:16:43 77° NNW 09:51:09 10° ENE
Cosmos 921 Rocket 4.0 09:16:42 36° SE 09:17:30 40° E 09:21:30 10° NNE
ADEOS II 3.5 09:14:34 10° NNW 09:17:38 24° NW 09:17:38 24° NW
Cosmos 1626 4.1 09:18:47 19° ESE 09:19:37 21° E 09:22:10 10° NE
Meteor 1-19 Rocket 4.3 09:20:01 58° W 09:20:22 59° W 09:26:16 10° N
Cosmos 923 Rocket 4.0 09:23:20 61° WNW 09:23:25 61° WNW 09:28:37 10° N
Cosmos 1975 4.3 09:20:21 10° NNE 09:23:53 34° E 09:27:22 10° SE
Cosmos 1092 Rocket 3.9 09:24:59 53° SW 09:26:07 63° W 09:32:12 10° N
CZ-2D R/B 4.2 09:29:22 10° NW 09:30:50 13° NW 09:30:50 13° NW
Envisat 2.8 09:28:28 10° N 09:33:33 78° WNW 09:34:51 50° SSW
Cosmos 2026 Rocket 4.1 09:32:11 46° WSW 09:33:35 55° W 09:39:48 10° N
BREEZE-M DEB (TANK) 3.4 09:34:04 38° W 09:35:39 49° NW 09:38:45 10° NE
SL-16 R/B 3.1 09:36:56 35° W 09:36:56 35° W 09:42:02 10° NNW
NOSS 2-2 (E) 4.4 09:31:16 10° NNW 09:36:24 83° ENE 09:43:47 10° SSE
EO 1 Delta rocket 4.2 09:37:19 10° N 09:41:41 43° WNW 09:41:49 43° W
Meteor 1-18 Rocket 4.2 09:39:20 22° S 09:43:01 81° E 09:48:44 10° N
Cosmos 1666 Rocket 3.7 09:40:59 10° N 09:45:26 72° E 09:49:50 10° SSE
CZ-4 R/B 4.3 09:45:04 10° N 09:49:28 39° WNW 09:49:59 38° W
NOSS 2-2 (D) 4.4 09:45:58 10° NNW 09:50:59 80° ENE 09:58:13 10° SSE
Meteor 2-4 Rocket 3.5 09:48:37 31° SSW 09:51:15 70° W 09:56:43 10° N
Thor Agena Rocket 3.4 09:46:17 10° N 09:51:17 73° WNW 09:53:50 30° SSW
Cosmos 1943 Rocket 2.2 09:46:30 10° NNW 09:52:12 82° ENE 09:57:52 10° SSE
YAOGAN 6 2.3 09:49:55 10° N 09:53:02 60° WNW 09:53:02 60° WNW
H-2A R/B 3.5 09:50:33 10° NNE 09:55:09 35° E 09:59:50 10° SSE
BlueWalker 3 3.9 09:52:47 10° NNW 09:56:11 29° NE 09:59:32 10° E
NOAA 11 4.3 09:54:08 10° N 09:59:25 54° WNW 10:02:18 26° SW
Cosmos 2237 Rocket 3.3 09:58:31 25° W 09:59:52 27° WNW 10:04:38 10° N
ALOS 4.1 09:59:57 10° NNW 10:02:16 15° WNW 10:02:16 15° WNW
Cosmos 2112 Rocket 4.5 10:01:06 31° WSW 10:03:02 43° WNW 10:08:07 10° N
Cosmos 1340 Rocket 3.5 10:04:13 31° WNW 10:04:13 31° WNW 10:07:38 10° NNW
Cosmos 1867 4.2 10:01:16 10° NW 10:06:01 31° WSW 10:10:44 10° S
DMSP B5D2-2 4.0 10:03:19 10° SSE 10:08:31 88° WSW 10:13:44 10° NNW
Cosmos 1328 Rocket 3.9 10:08:30 28° SW 10:10:18 44° W 10:14:32 10° N
ATLAS 2AS CENTAUR R/B 2.9 10:07:19 22° SW 10:12:26 64° WNW 10:19:38 10° NNE
Cosmos 1805 3.6 10:09:19 10° NNW 10:12:44 37° W 10:13:52 29° SW
CRYOSAT 2 4.4 10:09:02 10° N 10:13:55 85° E 10:18:47 10° S
Cosmos 1707 4.3 10:12:59 10° SSE 10:16:18 33° E 10:19:38 10° NNE
SWAS 4.3 10:14:55 10° NNW 10:19:06 70° WSW 10:23:16 10° SSE
Chandra Rocket (1) 3.0 10:18:55 21° SSW 10:20:34 32° SSE 10:26:48 10° ESE
IRS-1D 4.1 10:17:49 10° N 10:22:30 38° WNW 10:26:05 17° SW
Cosmos 1633 Rocket 3.2 10:19:12 10° NNW 10:23:22 48° W 10:27:33 10° SSW
S3M 4.1 10:18:37 10° N 10:24:48 79° E 10:31:02 10° S
Cosmos 1048 Rocket 4.0 10:21:04 10° SSW 10:26:24 89° WNW 10:31:43 10° NNE
Cosmos 1943 4.5 10:22:13 10° S 10:27:30 41° ESE 10:32:49 10° NE
Cosmos 2266 Rocket 3.9 10:22:55 10° SSW 10:29:01 73° W 10:35:05 10° N
Cosmos 1655 Rocket 4.2 10:23:17 10° S 10:29:28 78° E 10:35:42 10° N
SL-08 ROCKET BODY 4.3 10:28:42 10° S 10:34:33 77° W 10:40:32 10° N
Cosmos 2278 Rocket 3.3 10:32:33 10° NW 10:36:39 21° W 10:40:46 10° SSW
Cosmos 1461 4.0 10:39:31 10° WNW 10:42:08 18° WSW 10:44:45 10° SSW
ARIANE 5 R/B 3.7 10:37:18 10° NNE 10:42:20 47° E 10:47:20 10° S
Cosmos 1674 2.4 10:40:42 10° SSW 10:44:04 57° W 10:47:27 10° N
USA 308 3.6 10:41:23 14° W 10:44:08 34° NW 10:47:43 10° NNE
Delta 2 Rocket 4.4 10:40:59 11° SW 10:45:24 43° SSE 10:49:47 10° E
Cosmos 2056 Rocket 4.0 10:42:07 10° NNW 10:47:09 41° W 10:52:11 10° S
ATLAS 5 CENTAUR R/B 3.5 10:42:33 11° WSW 10:47:36 17° SSW 10:50:41 10° S
CZ-2C R/B 4.0 10:46:51 10° NNW 10:50:18 18° WNW 10:53:43 10° WSW
SL-16 R/B 2.9 10:45:14 10° SW 10:50:20 34° WNW 10:55:29 10° N
Cosmos 2315 Rocket 4.1 10:45:19 10° N 10:51:32 85° E 10:57:44 10° S
ARGOS 4.0 10:46:34 10° NNE 10:51:51 55° E 10:57:04 10° S
Cosmos 1766 3.5 10:49:20 10° NNW 10:52:48 39° W 10:56:14 10° SSW
Cosmos 1939 Rocket 2.6 10:49:08 10° N 10:52:53 71° WNW 10:56:39 10° SSW
Cosmos 1626 3.8 10:51:53 11° WSW 10:53:20 13° WNW 10:55:00 10° NW
Cosmos 1452 Rocket 4.2 10:49:09 10° N 10:54:20 60° ENE 10:59:30 10° SSE
Cosmos 1340 4.1 10:52:54 10° NW 10:54:53 15° W 10:56:51 10° SW
KORONAS-FOTON 3.9 10:52:39 10° SSW 10:56:12 49° W 10:59:46 10° N
Cosmos 1656 Rocket 3.8 10:55:23 10° NNW 11:00:49 78° ENE 11:06:14 10° SSE
NOSS 3-1 (C) 4.4 10:54:35 10° NNW 11:02:29 88° ENE 11:11:47 10° SSE
ASTRO E2 3.6 11:01:36 10° SW 11:04:46 31° SSE 11:07:57 10° ESE
CZ-3 R/B 3.1 11:05:43 10° WSW 11:22:26 44° S 11:28:07 10° ESE
